Simultaneous Nadir Overpasses (SNOs) Predictions

Prediction of SNOs between LANDSAT-8 and NPP Satellite Orbit:

Table of predicted SNOs for the next 14.0 days since TLE Epoch: 6/18/2016
Index Date (LANDSAT-8) Time (LANDSAT-8) Lat,Lon (LANDSAT-8) SZA (LANDSAT-8 ) Date (NPP) Time (NPP) Lat,Lon (NPP) SZA (NPP ) Distance(km) Time Diff (sec)
1 06/20/2016 06:08:41 -70.19, -95.62 133.30 06/20/2016 06:08:00 -70.18, -95.56 133.30 2.45 41
2 06/20/2016 06:58:08 70.09, 71.88 46.61 06/20/2016 06:58:45 70.11, 71.86 46.62 1.87 37
3 06/22/2016 21:35:32 70.79,-146.49 47.30 06/22/2016 21:34:23 70.86,-148.20 47.43 63.04 69
4 06/22/2016 22:25:11 -70.19, 20.25 133.29 06/22/2016 22:24:54 -70.20, 20.17 133.27 3.26 17
5 06/22/2016 23:14:38 70.08,-172.26 46.62 06/22/2016 23:15:38 70.08,-172.33 46.61 2.81 60
6 06/25/2016 13:52:13 70.22, -31.46 46.82 06/25/2016 13:51:05 70.21, -31.38 46.81 3.33 68
7 06/25/2016 14:41:43 -70.12, 136.03 133.29 06/25/2016 14:41:47 -70.12, 136.07 133.29 1.70 4
8 06/25/2016 15:31:15 69.73, -56.87 46.35 06/25/2016 15:32:26 69.74, -56.04 46.32 31.68 71
9 06/28/2016 06:08:44 70.20, 84.39 46.91 06/28/2016 06:07:59 70.18, 84.43 46.90 2.16 45
10 06/28/2016 06:58:14 -70.10,-108.12 133.19 06/28/2016 06:58:41 -70.09,-108.11 133.20 0.72 27
11 06/30/2016 21:35:33 -71.10, 33.98 132.07 06/30/2016 21:34:26 -71.16, 31.30 131.91 96.59 67
12 06/30/2016 22:25:15 70.17,-159.78 47.04 06/30/2016 22:24:53 70.16,-159.77 47.04 0.59 22
13 06/30/2016 23:14:45 -70.07, 7.72 133.05 06/30/2016 23:15:35 -70.07, 7.70 133.06 0.89 50




NCC Satellite Simultaneous Nadir Overpasses (SNOs) Prediction Service
